SO-114 (51081 NORAD) Tracking and Keplerian Element Data

This shows tracking and keplerian element data for the satellite.

Feedback or suggestion? Click here.




ElementValue
Catalog51081
NameSO-114
Epoch Orbit12858
Epoch Day125.18018192
Epoch Year2024
RAAN208.2829
Inclination97.4062
Eccentricity0.000814
Argument of Perigee228.5848
Mean Anonmoly131.4721
Mean Motion15.81899751
Decay Rate0.00310876
L11 51081U 22002DB 24125.18018192 .00310876 00000-0 14883-2 0 9996
L22 51081 97.4062 208.2829 0008140 228.5848 131.4721 15.81899751128583



Live tracking and technical data element details for SO-114 (NORAD 51081). SO-114 can be tracked NOW for your location showing map with azimuth and elevation plus other details from your city location.







IsCatalogInMostPopularTable: catalog: 51081, numindb: 52
Update: records affected: 1



GetName: 51081 SO-114

Hit Count: updated at: Thu, 23 Jan 2025 18:13:55 GMT